DW5450 Weather Reports


Display with metric or nautical units.
time (UTC)temp
F
wind
direction
speed
MPH
gust
MPH
rain 1hr
in
rain 24hr
in
rain mn
in
humidity
%
barometer
mb
20260506113009 66 309 0.0 5.0 0.00 0.00 0.00 88 1011.5
20260506111508 66 313 2.0 6.0 0.00 0.00 0.00 88 1011.2
20260506110007 66 9 0.0 2.0 0.00 0.00 0.00 88 1011.1
20260506104507 66 9 0.0 2.0 0.00 0.00 0.00 88 1011.0
20260506103006 66 9 1.0 3.0 0.00 0.00 0.00 88 1011.0
20260506101506 66 57 0.0 2.0 0.00 0.00 0.00 88 1010.9
20260506100004 66 59 0.0 2.0 0.00 0.00 0.00 88 1011.0
20260506094503 66 59 0.0 1.0 0.00 0.00 0.00 88 1011.0
20260506093004 66 59 0.0 2.0 0.00 0.00 0.00 88 1011.1
20260506091501 66 59 0.0 1.0 0.00 0.00 0.00 88 1011.2
20260506090059 66 59 0.0 0.0 0.00 0.00 0.00 87 1011.2
20260506084557 67 59 0.0 1.0 0.00 0.00 0.00 87 1011.2
20260506083058 68 59 0.0 0.0 0.00 0.00 0.00 87 1011.2
20260506081556 68 59 0.0 0.0 0.00 0.00 0.00 87 1011.2
20260506073048 68 59 1.0 2.0 0.00 0.00 0.00 87 1011.5
20260506071548 68 59 1.0 3.0 0.00 0.00 0.00 87 1011.5
20260506061542 71 65 0.0 0.0 0.00 0.00 0.00 86 1012.3
20260506044542 72 164 0.0 1.0 0.00 0.00 0.00 84 1012.2
20260506043039 73 164 0.0 0.0 0.00 0.00 0.00 84 1012.0
20260506041538 73 164 0.0 0.0 0.00 0.00 0.00 84 1011.8
20260506040038 73 164 0.0 0.0 0.00 0.00 0.00 83 1011.7
20260506034538 74 164 0.0 0.0 0.00 0.00 0.00 83 1011.8
20260506033037 74 164 0.0 0.0 0.00 0.00 0.00 83 1011.7
20260506031537 75 164 0.0 1.0 0.00 0.00 0.00 82 1011.5
20260506030038 75 164 0.0 0.0 0.00 0.00 0.00 82 1011.4
20260506024545 75 164 0.0 2.0 0.00 0.00 0.00 81 1011.3
20260506023035 76 163 0.0 1.0 0.00 0.00 0.00 81 1011.2
20260506021535 76 163 0.0 2.0 0.00 0.00 0.00 80 1011.0
20260506020034 76 163 0.0 3.0 0.00 0.00 0.00 79 1010.9
20260506014537 77 148 0.0 3.0 0.00 0.00 0.00 79 1010.8
20260506013035 77 125 0.0 4.0 0.00 0.00 0.00 78 1010.7
20260506011533 78 161 0.0 4.0 0.00 0.00 0.00 78 1010.8
20260506010034 78 180 2.0 5.0 0.00 0.00 0.00 78 1010.7
20260506004532 78 194 2.0 7.0 0.00 0.00 0.00 77 1010.6
20260506003036 79 123 2.0 8.0 0.00 0.00 0.00 77 1010.5
20260506001537 79 146 3.0 7.0 0.00 0.00 0.00 77 1010.5
20260506000030 80 129 4.0 14.0 0.00 0.00 0.00 76 1010.5
20260505234535 80 159 2.0 9.0 0.00 0.00 0.00 75 1010.5
20260505233029 81 113 4.0 10.0 0.00 0.00 0.00 74 1010.2
20260505231529 81 203 5.0 11.0 0.00 0.00 0.00 73 1010.2
20260505230045 81 132 3.0 9.0 0.00 0.00 0.00 73 1010.3
20260505224526 81 107 3.0 11.0 0.00 0.00 0.00 72 1010.4
20260505223025 82 179 4.0 10.0 0.00 0.00 0.00 69 1010.4
20260505221524 83 137 3.0 8.0 0.00 0.00 0.00 68 1010.6
20260505220030 83 126 1.0 9.0 0.00 0.00 0.00 68 1010.6
20260505214521 83 196 3.0 9.0 0.00 0.00 0.00 67 1010.9
20260505213022 82 118 4.0 10.0 0.00 0.00 0.00 69 1011.2
20260505211519 82 101 4.0 13.0 0.00 0.00 0.00 68 1011.3
20260505210018 82 169 2.0 12.0 0.00 0.00 0.00 69 1011.5
20260505204518 82 146 4.0 12.0 0.00 0.00 0.00 68 1011.6
20260505203020 83 131 3.0 12.0 0.00 0.00 0.00 69 1011.7
20260505201516 82 180 5.0 12.0 0.00 0.00 0.00 67 1011.8
20260505200016 83 167 4.0 9.0 0.00 0.00 0.00 67 1011.9
20260505194515 83 153 4.0 8.0 0.00 0.00 0.00 66 1012.0
20260505193014 83 96 2.0 10.0 0.00 0.00 0.00 68 1012.0
20260505191514 82 152 3.0 12.0 0.00 0.00 0.00 69 1012.1
20260505190016 83 122 4.0 10.0 0.00 0.00 0.00 68 1012.2
20260505184511 82 115 4.0 9.0 0.00 0.00 0.00 69 1012.4
20260505183011 82 167 4.0 9.0 0.00 0.00 0.00 70 1012.6
20260505181509 81 132 3.0 10.0 0.00 0.00 0.00 72 1012.9
20260505180021 81 158 4.0 10.0 0.00 0.00 0.00 72 1013.0
20260505174508 81 111 4.0 10.0 0.00 0.00 0.00 73 1013.1
20260505173008 81 129 4.0 11.0 0.00 0.00 0.00 73 1013.1
20260505171507 81 128 4.0 11.0 0.00 0.00 0.00 71 1013.0
20260505170006 81 180 4.0 12.0 0.00 0.00 0.00 71 1013.0
20260505164505 82 164 4.0 9.0 0.00 0.00 0.00 69 1013.0
20260505163003 81 139 3.0 8.0 0.00 0.00 0.00 69 1013.3
20260505161502 81 158 4.0 7.0 0.00 0.00 0.00 68 1012.9
20260505153052 78 348 0.0 2.0 0.00 0.00 0.00 74 1012.9
20260505151548 76 348 0.0 3.0 0.00 0.00 0.00 72 1012.9
20260505124526 64 299 0.0 3.0 0.00 0.00 0.00 86 1012.1
20260505123031 64 299 1.0 4.0 0.00 0.00 0.00 86 1011.9
20260505121522 64 299 0.0 3.0 0.00 0.00 0.00 87 1011.7
20260505120024 64 299 0.0 2.0 0.00 0.00 0.00 87 1011.6
20260505114521 64 299 0.0 4.0 0.00 0.00 0.00 87 1011.4